Starlink 31007

operational
NORAD ID: 58889 Int'l Des: 2024-020 Owner: SPXS Country: US Constellation: starlink
LEOCIRCULAR

Starlink 31007について

説明を読み込み中...

リアルタイム位置

3D地球を読み込み中...

次回通過

高度履歴

Altitude vs Time

uPlot chart will show altitude changes over time

軌道要素

1 58889U 24020P 25259.12406364 -.00000388 00000-0 -97590-6 0 9992
2 58889 53.1606 53.3075 0001174 99.2994 260.8139 15.30208296 91341
Epoch: Sep 16, 2025 • Age: 15 hours

現在のステータス

高度 491.2 km
速度 7.62 km/s
衛星直下点 -45.30°S, 11.18°E
打ち上げ日 Jan 29, 2024
運用期間 1.6 years
タイプ internet

技術仕様

分類 Payload
質量 730.00 kg
乾燥質量 700.00 kg
総質量 730.00 kg
長さ 0.30 m
直径 4.10 m
スパン 29.00 m
形状 Box + pan
製造者 SPXS
バスタイプ Starlink V2M
フェーズステータス In Orbit
所有者/国 SPXS/US

大規模コンステレーション

Loading constellations...